Location: Unspecified
(43.1808°N, 0.0000°E)
Time: 17:48:55
(UTC+00:00)

Envisat - Visible Passes

Search period start: 04 April 2026 00:00
Search period end: 14 April 2026 00:00
Orbit: 761 x 763 km, 98.4° (Epoch: 29 March)

Date Brightness Start Highest point End Pass type
(mag) Time Alt. Az. Time Alt. Az. Time Alt. Az.
4 Apr 5.0 01:44:12 10° NE 01:47:12 23° ENE 01:47:12 23° ENE visible
4 Apr 3.5 03:22:37 10° N 03:27:20 41° WNW 03:27:20 41° WNW visible
5 Apr 3.0 02:44:35 10° NNE 02:49:12 74° NNE 02:49:12 74° NNE visible
5 Apr 4.9 04:25:39 10° NNW 04:27:51 13° WNW 04:29:20 11° WNW visible
6 Apr 4.2 02:07:02 10° NNE 02:11:04 37° ENE 02:11:04 37° ENE visible
6 Apr 4.1 03:46:21 10° N 03:50:31 26° WNW 03:51:11 26° WNW visible
7 Apr 5.3 01:30:15 10° NE 01:32:55 17° E 01:32:55 17° E visible
7 Apr 3.1 03:07:59 10° N 03:12:58 56° WNW 03:13:03 56° WNW visible
8 Apr 3.2 02:30:08 10° NNE 02:34:54 65° E 02:34:54 65° E visible
8 Apr 4.6 04:10:23 10° NNW 04:13:34 17° WNW 04:15:02 15° W visible
9 Apr 4.5 01:52:48 10° NE 01:56:46 29° E 01:56:46 29° E visible
9 Apr 3.7 03:31:34 10° N 03:36:09 35° WNW 03:36:54 33° W visible
10 Apr 5.5 01:16:42 10° ENE 01:18:37 13° E 01:18:37 13° E visible
10 Apr 2.8 02:53:26 10° N 02:58:30 76° WNW 02:58:45 74° WSW visible
10 Apr 5.0 04:35:27 10° NW 04:36:32 11° NW 04:37:38 10° WNW visible
11 Apr 3.6 02:15:45 10° NNE 02:20:36 48° E 02:20:36 48° E visible
11 Apr 4.3 03:55:24 10° NNW 03:59:15 22° WNW 04:00:44 20° W visible
12 Apr 4.9 01:38:43 10° NE 01:42:27 22° E 01:42:27 22° E visible
12 Apr 3.3 03:16:54 10° N 03:21:45 46° WNW 03:22:35 42° W visible
13 Apr 2.9 02:38:56 10° NNE 02:44:01 80° ESE 02:44:26 74° SSE visible
13 Apr 4.8 04:19:39 10° NNW 04:22:17 14° WNW 04:24:34 11° W visible
